Weather History for KPRN - March, 2014

Change the Weather History Date:

Friday, March 7, 2014

  Actual Average Record
Temperature  
Mean Temperature 50 °F -  
Max Temperature 60 °F 68 °F 85 °F (1974)
Min Temperature 39 °F 41 °F 24 °F (1966)
Degree Days  
Heating Degree Days 16    
Moisture  
Dew Point 40 °F    
Average Humidity 83    
Maximum Humidity 96    
Minimum Humidity 53    
Precipitation  
Precipitation 0.02 in - - ()
Sea Level Pressure  
Sea Level Pressure 30.01 in    
Wind  
Wind Speed 6 mph (NNE)    
Max Wind Speed 14 mph    
Max Gust Speed 23 mph    
Visibility 6 miles    
Events      
Averages and records for this station are not official NWS values.
T = Trace of Precipitation, MM = Missing Value Source: NWS Daily Summary

Daily Weather History Graph

Daily Weather History Graph

Search for Another Location

Airport or City:

Trip Planner

Search our weather history database for the weather conditions in past years. The results will help you decide how hot, cold, wet, or windy it might be!

Date:

Astronomy

Mar. 07, 2014 Rise Set
Actual Time 6:06 AM CST 5:48 PM CST
Civil Twilight 5:42 AM CST 6:13 PM CST
Nautical Twilight 5:13 AM CST 6:41 PM CST
Astronomical Twilight 4:45 AM CST 7:09 PM CST
Moon 10:20 AM CST (3/7) No Moon Set
Length of Visible Light 12h 31m
Length of Day
11h 42m
Waxing Crescent, 42% of the Moon is Illuminated
Mar 7
Waxing Crescent
Mar 8
First Quarter
Mar 16
Full
Mar 23
Last Quarter
Mar 30
New

Hourly Weather History & Observations

Time (CST) Temp. Windchill Dew Point Humidity Pressure Visibility Wind Dir Wind Speed Gust Speed Precip Events Conditions
12:08 AM 39.2 °F 35.0 °F 37.4 °F 93% 29.95 in 3.0 mi NNE 5.8 mph - N/A   Overcast
12:19 AM 39.2 °F 35.0 °F 37.4 °F 93% 29.95 in 2.5 mi NNE 5.8 mph - N/A   Overcast
12:46 AM 39.2 °F 33.6 °F 37.4 °F 93% 29.94 in 3.0 mi North 8.1 mph - N/A   Overcast
12:56 AM 39.0 °F 34.0 °F 37.9 °F 96% 29.95 in 3.0 mi NNE 6.9 mph - 0.01 in   Overcast
1:56 AM 39.0 °F 35.7 °F 37.0 °F 93% 29.96 in 9.0 mi NE 4.6 mph - N/A   Overcast
2:56 AM 39.0 °F 35.7 °F 37.0 °F 93% 29.96 in 2.0 mi NNE 4.6 mph - N/A   Overcast
3:17 AM 39.2 °F 35.9 °F 37.4 °F 93% 29.95 in 3.0 mi NNE 4.6 mph - N/A   Overcast
3:56 AM 39.0 °F 36.8 °F 37.9 °F 96% 29.96 in 3.0 mi NE 3.5 mph - N/A   Overcast
4:49 AM 39.2 °F - 37.4 °F 93% 29.99 in 2.0 mi Calm Calm - N/A   Overcast
4:56 AM 39.0 °F 36.8 °F 37.9 °F 96% 30.00 in 2.0 mi NNW 3.5 mph - N/A   Overcast
5:09 AM 39.2 °F 35.9 °F 37.4 °F 93% 30.00 in 4.0 mi NNW 4.6 mph - N/A   Overcast
5:56 AM 39.9 °F 35.1 °F 37.9 °F 93% 30.01 in 3.0 mi North 6.9 mph - N/A   Overcast
6:05 AM 39.2 °F 34.2 °F 37.4 °F 93% 30.00 in 2.5 mi North 6.9 mph - N/A   Overcast
6:17 AM 39.2 °F 34.2 °F 37.4 °F 93% 30.01 in 3.0 mi North 6.9 mph - N/A   Overcast
6:29 AM 39.2 °F 34.2 °F 37.4 °F 93% 30.01 in 2.5 mi North 6.9 mph - N/A   Overcast
6:40 AM 39.2 °F 34.2 °F 37.4 °F 93% 30.00 in 1.5 mi North 6.9 mph - 0.01 in   Overcast
6:56 AM 39.9 °F 35.1 °F 37.9 °F 93% 30.02 in 2.5 mi North 6.9 mph - 0.01 in   Overcast
7:06 AM 39.2 °F 34.2 °F 37.4 °F 93% 30.02 in 4.0 mi North 6.9 mph - N/A   Overcast
7:32 AM 41.0 °F 35.8 °F 39.2 °F 93% 30.03 in 6.0 mi North 8.1 mph - N/A   Overcast
7:56 AM 42.1 °F 38.4 °F 39.9 °F 92% 30.04 in 6.0 mi North 5.8 mph - N/A   Overcast
8:12 AM 42.8 °F 39.3 °F 39.2 °F 87% 30.04 in 6.0 mi Variable 5.8 mph - N/A   Overcast
8:22 AM 42.8 °F 38.0 °F 39.2 °F 87% 30.03 in 6.0 mi NNE 8.1 mph - N/A   Overcast
8:35 AM 44.6 °F 40.2 °F 39.2 °F 81% 30.04 in 9.0 mi NNE 8.1 mph - N/A   Overcast
8:56 AM 44.1 °F 39.5 °F 41.0 °F 89% 30.04 in 6.0 mi NNE 8.1 mph - N/A   Overcast
9:56 AM 48.0 °F - 42.1 °F 80% 30.04 in 10.0 mi NNE 8.1 mph - N/A   Overcast
10:13 AM 50.0 °F - 42.8 °F 76% 30.04 in 10.0 mi NNE 8.1 mph - N/A   Overcast
10:38 AM 50.0 °F - 42.8 °F 76% 30.04 in 10.0 mi NE 10.4 mph - N/A   Overcast
10:56 AM 52.0 °F - 43.0 °F 71% 30.04 in 10.0 mi ENE 8.1 mph - N/A   Overcast
11:33 AM 53.6 °F - 42.8 °F 67% 30.03 in 10.0 mi NE 12.7 mph 19.6 mph N/A   Mostly Cloudy
11:56 AM 57.0 °F - 43.0 °F 59% 30.02 in 10.0 mi ENE 12.7 mph 19.6 mph N/A   Overcast
12:56 PM 57.9 °F - 42.1 °F 56% 29.99 in 10.0 mi NE 13.8 mph 23.0 mph N/A   Mostly Cloudy
1:56 PM 60.1 °F - 43.0 °F 53% 29.97 in 10.0 mi Variable 5.8 mph - N/A   Scattered Clouds
2:56 PM 57.9 °F - 42.1 °F 56% 29.99 in 10.0 mi ESE 4.6 mph - N/A   Overcast
3:56 PM 59.0 °F - 42.1 °F 53% 30.00 in 10.0 mi Calm Calm - N/A   Overcast
4:56 PM 59.0 °F - 43.0 °F 55% 30.02 in 10.0 mi Calm Calm - N/A   Overcast
5:56 PM 55.9 °F - 45.0 °F 67% 30.02 in 10.0 mi Calm Calm - N/A   Overcast
6:56 PM 53.1 °F - 46.0 °F 77% 30.04 in 10.0 mi Calm Calm - N/A   Overcast
7:56 PM 48.9 °F - 45.0 °F 86% 30.04 in 10.0 mi Calm Calm - N/A   Clear
8:56 PM 46.9 °F - 44.1 °F 90% 30.06 in 10.0 mi Calm Calm - N/A   Clear
9:56 PM 46.0 °F - 43.0 °F 89% 30.05 in 10.0 mi Calm Calm - N/A   Clear
10:56 PM 44.1 °F 42.5 °F 41.0 °F 89% 30.06 in 10.0 mi WSW 3.5 mph - N/A   Clear
11:56 PM 44.1 °F - 41.0 °F 89% 30.06 in 10.0 mi Calm Calm - N/A   Clear